SCP
0 0 0 0 0 0 0 0 0 0 0 0 0 0 0 0 0 0 0 0 0 0 0 0 0 0 0 0 0 0 0 0 0 0 0 0 0 0 0 0 0 0 0 0
0 0 0 0 0 0 0 0 0 0 0 0 0 0 0 0 0 0 0 0 0 0 0 0 0 0 0 0 0 0 0 0 0 0 0 0 0 0 0 0 0 0 0 0
0 0 0 0 0 0 0 0 0 0 0 0 0 0 0 0 0 0 0 0 0 0 0 0 0 0 0 0 0 0 0 0 0 0 0 0 0 0 0 0 0 0 0 0
0 0 0 0 0 0 0 0 0 0 0 0 0 0 0 0 0 0 0 0 0 0 0 0 0 0 0 0 0 0 0 0 0 0 0 0 0 0 0 0 0 0 0 0
0 0 0 0 0 0 0 0 0 0 0 0 0 0 0 0 0 0 0 0 0 0 0 0 0 0 0 0 0 0 0 0 0 0 0 0 0 0 0 0 0 0 0 0
0 0 0 0 0 0 0 0 0 0 0 0 0 0 0 0 0 0 0 0 0 0 0 0 0 0 0 0 0 0 0 0 0 0 0 0 0 0 0 0 0 0 0 0
0 0 0 0 0 0 0 0 0 0 0 0 0 0 0 0 0 0 0 0 0 0 0 0 0 0 0 0 0 0 0 0 0 0 0 0 0 0 0 0 0 0 0 0
0 0 0 0 0 0 0 0 0 0 0 0 0 0 0 0 0 0 0 0 0 0 0 0 0 0 0 0 0 0 0 0 0 0 0 0 0 0 0 0 0 0 0 0
0 0 0 0 0 0 0 0 0 0 0 0 0 0 0 0 0 0 0 0 0 0 0 0 0 0 0 0 0 0 0 0 0 0 0 0 0 0 0 0 0 0 0 0
0 0 0 0 0 0 0 0 0 0 0 0 0 0 0 0 0 0 0 0 0 0 0 0 0 0 0 0 0 0 0 0 0 0 0 0 0 0 0 0 0 0 0 0
0 0 0 0 0 0 0 0 0 0 0 0 0 0 0 0 0 0 0 0 0 0 0 0 0 0 0 0 0 0 0 0 0 0 0 0 0 0 0 0 0 0 0 0
0 0 0 0 0 0 0 0 0 0 0 0 0 0 0 0 0 0 0 0 0 0 0 0 0 0 0 0 0 0 0 0 0 0 0 0 0 0 0 0 0 0 0 0
0 0 0 0 0 0 0 0 0 0 0 0 0 0 0 0 0 0 0 0 0 0 0 0 0 0 0 0 0 0 0 0 0 0 0 0 0 0 0 0 0 0 0 -0
-0 0 0 0 0 0 0 0 0 0 0 0 0 0 0 0 0 0 0 0 0 0 0 0 0 0 0 0 0 0 0 0 0 0 0 0 0 0 0 0 0 0 -0 -0
0 0 0 0 0 0 0 0 0 0 0 0 0 0 0 0 0 0 0 0 0 0 0 0 0 0 0 0 0 0 0 0 0 0 0 0 0 0 0 0 0 0 -0 -0
0 0 0 0 0 0 0 0 0 0 0 0 0 0 0 0 0 0 0 0 0 0 0 0 0 0 0 0 0 0 0 0 0 0 0 0 0 0 0 0 0 0 0 -0
0 0 0 0 0 0 0 0 0 0 0 0 0 0 0 0 0 0 0 0 0 0 0 0 0 0 0 0 0 0 0 0 0 0 0 0 0 0 0 0 0 0 0 0
0 0 0 0 0 0 0 0 0 0 0 0 0 0 0 0 0 0 0 0 0 0 0 0 0 0 0 0 0 0 0 0 0 0 0 0 0 0 0 0 0 0 0 0
0 0 0 0 0 0 0 0 0 0 0 0 0 0 0 0 0 0 0 0 0 0 0 0 0 0 0 0 0 0 0 0 0 0 0 0 0 0 0 0 0 0 0 0
-0 0 0 0 0 0 0 0 0 0 0 0 0 0 0 0 0 0 0 0 0 0 0 0 0 0 0 0 0 0 -0 0 0 0 0 0 0 0 0 0 0 0 0 0
0 0 0 0 0 0 0 0 0 0 0 0 0 0 0 0 0 0 0 0 0 0 0 0 0 0 0 -0 0 0 0 0 0 0 0 0 0 0 0 0 0 0 0 0
0 0 0 0 0 0 0 0 0 0 0 0 0 0 0 0 0 0 0 0 0 0 0 0 0 0 0 0 0 0 0 0 0 0 0 0 0 0 0 0 0 0 0 0
0 0 0 0 0 0 0 0 0 0 0 0 0 0 0 0 0 0 0 0 0 0 0 0 0 0 0 0 0 0 0 0 0 0 0 0 0 0 0 0 -0 -0 0 0
0 0 0 0 0 0 0 0 0 0 0 0 0 0 0 0 0 0 0 0 0 0 0 0 0 0 0 0 0 0 0 0 0 0 0 0 0 0 0 0 0 0 0 0
0 0 0 0 0 0 0 0 0 0 0 0 0 0 0 0 0 0 0 0 0 0 0 0 0 0 0 0 0 0 0 0 0 0 0 0 0 0 0 0 0 0 0 0
0 0 0 0 0 0 0 0 0 0 0 0 0 0 0 0 0 0 0 0 0 0 0 0 0 0 0 0 0 0 0 0 0 0 0 0 0 0 0 0 0 0 0 0
0 0 0 0 0 0 0 0 0 0 0 0 0 0 0 0 0 0 0 0 0 0 0 0 0 0 0 0 0 0 0 0 0 0 0 0 0 0 0 0 0 0 0 0
Wind_Speed
5 4 3 4 5 5 6 7 8 8 8 9 6 6 5 4 4 3 2 2 2 1 1 1 1 1 1 2 2 1 2 2 3 3 3 2 2 3 3 3 3 3 3 3
2 2 3 3 5 5 5 5 5 4 6 5 3 4 4 4 5 4 2 2 2 1 1 0 1 1 2 2 2 2 2 3 3 3 3 3 3 3 3 3 3 2 3 3
3 2 1 4 5 5 4 4 6 7 8 4 4 6 7 6 5 5 4 3 2 2 2 2 1 1 2 2 2 2 2 3 3 3 3 3 3 3 3 3 3 3 3 3
1 1 5 8 2 4 4 3 5 4 3 6 6 4 3 4 6 5 4 4 3 2 2 1 1 1 1 2 2 2 2 3 3 3 3 3 3 3 3 3 3 3 3 3
3 2 5 5 2 3 4 3 4 5 4 4 6 5 1 3 5 5 5 4 3 2 2 1 1 1 1 1 2 2 3 3 4 3 3 4 4 4 3 3 3 3 3 3
4 3 5 6 3 1 3 3 3 6 7 7 7 4 4 4 4 4 3 2 2 1 1 0 1 0 0 1 2 3 4 4 3 3 3 4 4 4 3 3 3 3 3 3
4 4 7 5 3 2 3 6 2 5 7 8 6 6 4 5 4 4 3 2 2 2 1 1 1 0 0 2 3 4 4 3 3 3 3 4 3 3 3 3 3 3 3 3
4 3 7 2 2 4 6 2 2 3 5 6 4 3 4 5 4 4 3 2 2 2 1 1 1 1 1 3 4 3 3 3 4 4 4 3 3 4 3 3 3 3 3 4
6 6 4 2 2 2 2 2 2 4 4 7 5 4 4 4 4 3 3 3 2 2 1 1 1 1 2 4 3 3 3 4 4 4 4 4 3 4 3 2 2 3 2 3
1 3 3 3 2 1 0 1 2 5 6 7 6 6 5 4 4 3 2 2 2 2 1 2 2 2 3 3 2 2 3 4 4 4 5 4 3 2 3 3 3 3 3 3
1 3 3 3 1 1 1 2 3 4 4 6 7 5 5 4 4 3 2 1 2 2 2 3 3 3 3 2 1 2 3 4 4 4 4 4 4 3 3 4 4 4 3 3
5 6 4 4 2 1 2 2 3 4 3 3 5 5 4 3 3 3 2 2 1 2 2 3 3 3 3 2 1 1 3 4 3 3 4 3 4 4 4 4 5 5 5 4
4 2 2 2 1 0 2 2 2 3 4 3 3 4 4 3 3 2 2 2 3 3 3 3 3 4 4 3 2 2 3 4 3 3 3 3 3 3 4 5 4 4 4 4
1 1 1 1 1 0 1 2 3 3 2 3 3 3 3 2 2 2 3 4 3 2 3 3 3 4 4 3 2 3 3 4 4 3 3 3 3 3 3 3 4 4 4 4
2 1 2 1 1 2 2 4 5 3 2 2 2 2 2 2 3 3 3 2 1 2 3 3 3 5 4 3 3 3 3 3 3 3 3 3 3 3 3 3 3 3 3 4
3 4 3 3 2 2 3 3 3 2 1 1 1 1 2 2 2 2 2 2 2 3 4 4 5 5 4 3 3 3 3 5 4 3 3 3 3 3 3 3 3 3 3 4
3 2 1 1 1 1 1 1 2 2 1 1 1 1 1 0 1 2 3 3 3 4 4 4 5 5 3 3 3 3 3 4 5 3 3 3 3 3 3 3 3 3 4 4
1 2 2 3 3 2 1 1 1 1 2 2 1 0 1 1 2 3 3 2 2 3 4 4 4 4 4 3 3 2 2 3 3 3 3 3 3 3 3 3 4 5 4 4
2 1 2 2 3 3 3 2 1 0 0 1 1 1 1 2 2 2 2 1 2 4 5 4 5 4 4 4 3 2 2 3 3 3 3 4 3 3 3 4 4 4 4 4
3 3 3 3 2 2 2 1 1 1 0 1 1 0 1 2 2 2 1 2 3 3 4 4 4 3 3 3 3 2 2 3 3 3 3 3 3 3 3 4 4 4 4 4
3 3 3 3 2 1 1 1 1 1 1 1 2 1 2 2 2 1 1 3 4 3 3 4 3 3 3 3 3 2 2 3 3 3 3 3 3 4 4 4 4 4 4 4
3 2 2 2 2 2 2 1 0 1 1 0 0 1 0 1 2 2 3 3 4 4 2 2 3 4 4 4 2 2 2 3 3 3 3 3 3 3 4 4 4 4 4 4
2 2 2 2 1 1 3 3 2 1 1 1 1 2 2 2 2 1 3 3 3 4 3 3 4 6 5 3 2 3 3 3 3 3 3 3 3 3 4 4 4 4 4 4
2 3 3 2 2 3 3 4 3 2 2 2 2 2 2 2 2 3 3 4 5 4 3 4 6 6 4 2 2 3 3 3 3 3 3 3 3 3 4 4 4 4 4 4
2 2 2 3 2 2 2 2 2 2 2 2 3 3 2 2 3 3 3 3 4 4 4 5 6 6 4 3 3 3 3 3 3 3 3 3 4 4 4 4 4 4 4 3
2 2 2 2 2 2 2 1 1 2 2 2 3 3 2 2 2 3 3 3 4 4 4 4 4 4 3 4 4 4 4 4 4 4 4 4 4 4 4 4 5 4 4 3
2 2 2 2 2 2 2 1 2 2 2 3 4 4 3 3 2 3 3 3 3 3 4 4 3 3 3 3 4 4 4 4 4 4 4 4 3 3 4 5 4 4 3 3
Wind_Direction
232 234 204 223 232 196 190 196 201 232 233 245 223 201 194 169 147 134 131 127 138 165 208 246 308 322 322 313 310 306 305 295 285 291 293 290 282 282 280 276 269 262 257 255
275 253 221 250 247 218 217 208 210 224 252 243 182 152 159 166 155 152 158 158 154 160 181 247 287 307 325 314 314 323 298 287 291 301 299 292 285 285 285 282 280 274 266 262
246 289 352 267 238 210 206 203 184 209 230 172 159 174 184 183 168 167 170 169 175 193 217 239 259 269 285 293 314 323 302 296 297 299 295 289 289 296 291 285 282 283 275 268
159 90 233 245 252 189 181 229 214 208 197 177 174 168 162 169 166 173 177 178 187 199 224 251 269 283 293 312 314 319 319 310 303 299 294 294 295 293 290 284 277 272 269 268
134 193 272 288 260 177 171 255 220 184 169 147 123 90 21 196 174 181 182 183 191 196 194 215 255 261 320 328 333 333 322 316 313 308 304 303 301 295 291 291 289 278 271 264
142 175 236 253 273 178 108 278 236 170 164 153 129 141 234 201 167 170 168 166 170 169 143 227 273 239 65 324 329 313 304 304 304 305 298 292 290 291 292 288 282 279 281 270
173 208 254 261 276 119 166 244 227 171 167 162 175 192 186 150 153 161 163 172 157 143 160 238 255 117 292 299 293 289 297 308 312 307 297 286 288 290 292 294 295 291 288 290
159 197 253 294 119 172 217 244 170 165 163 161 163 144 138 146 155 158 154 153 145 141 219 282 263 164 277 288 288 300 310 314 312 309 306 309 304 300 297 292 293 295 297 303
189 213 252 269 217 241 172 169 184 156 153 148 144 152 151 153 158 160 163 169 162 156 195 293 274 201 251 282 299 315 325 317 310 312 310 307 297 296 302 293 279 282 285 290
248 281 294 306 322 345 165 193 176 152 151 147 151 159 160 158 161 164 174 175 162 149 195 282 288 274 255 279 301 317 314 311 313 316 314 314 304 289 285 285 279 281 283 283
262 287 329 329 331 357 26 62 102 118 137 149 144 154 163 165 173 178 180 188 169 189 219 254 276 286 280 279 299 312 308 309 312 309 303 306 306 290 276 261 248 247 262 266
225 226 202 250 279 138 108 110 127 119 112 132 147 155 156 166 180 180 187 190 207 226 235 256 268 278 282 278 264 281 300 305 305 306 307 306 308 312 297 281 287 269 253 253
237 239 212 246 289 188 149 148 137 138 146 149 148 150 153 168 184 185 193 203 220 232 241 251 261 272 276 273 261 257 270 284 293 300 302 304 305 305 312 319 315 302 289 285
230 120 91 219 223 241 113 112 105 101 118 142 146 145 150 161 168 185 220 230 227 233 249 250 257 269 271 266 259 268 275 281 286 284 288 290 291 290 289 298 309 312 309 298
3 30 188 164 89 78 96 103 98 96 95 96 128 143 155 173 201 223 235 238 231 247 261 260 263 270 273 262 259 269 277 282 284 285 285 285 289 292 293 292 290 295 310 315
8 29 63 92 116 113 102 111 122 149 158 150 150 181 194 200 218 238 244 224 220 248 258 261 265 268 272 261 262 270 273 283 291 290 292 296 296 295 297 294 291 291 292 295
53 30 44 70 130 138 148 159 165 170 169 165 212 222 165 120 284 271 271 262 246 251 255 255 266 278 276 260 251 259 271 287 298 297 291 289 289 286 285 284 282 283 281 281
180 209 190 176 166 153 136 111 132 164 189 198 174 108 176 205 235 260 276 290 300 298 282 269 274 285 281 270 250 245 258 273 281 287 288 288 287 283 283 282 281 282 285 289
23 63 102 129 149 148 142 133 147 178 185 142 138 209 260 258 255 270 293 298 284 283 289 297 299 294 285 280 271 245 253 268 281 285 284 288 290 285 281 282 283 284 285 288
38 62 79 76 77 96 104 97 88 45 346 146 136 347 329 314 304 300 308 281 262 265 286 301 299 294 291 287 288 266 263 268 276 284 291 292 293 292 288 289 291 290 289 288
34 44 60 65 49 36 61 140 145 191 266 185 172 208 255 291 313 318 305 293 293 301 304 302 300 297 295 296 287 278 274 276 279 281 286 292 296 296 296 296 295 293 293 293
31 39 42 39 38 8 348 338 239 243 287 292 234 221 243 304 314 308 272 257 278 297 298 290 293 298 304 301 284 279 279 280 279 280 283 289 294 299 303 306 301 300 297 295
30 30 29 23 18 351 351 348 338 326 312 289 264 251 244 246 240 249 287 288 292 293 288 279 293 302 306 293 279 279 280 280 278 277 282 289 293 297 301 304 303 303 298 296
24 21 10 6 25 28 359 334 331 322 303 289 272 261 253 267 280 258 258 282 293 292 285 286 293 299 301 286 281 279 277 274 272 275 280 284 286 289 291 295 299 301 297 296
2 5 5 8 5 339 316 314 326 329 329 320 307 292 268 238 247 274 283 284 288 289 289 291 295 298 293 284 281 278 274 270 269 269 275 281 281 282 285 290 295 300 299 295
347 336 317 297 286 287 296 312 314 310 308 304 303 300 297 285 271 275 282 284 288 289 287 286 289 287 284 285 284 280 277 279 274 269 271 272 277 280 284 289 294 294 296 299
349 339 337 338 328 312 303 300 295 294 289 282 290 295 296 294 291 290 290 290 291 287 287 286 283 278 276 279 282 281 278 277 276 273 272 272 278 282 286 287 288 292 298 303